This is the latest recevied weather packets stored in our database for station/object HS2LXA-13. If no packets are shown the sender has not sent any weather packets the latest 1 day(s).
| Time | Temp. | Humidity | Pressure | Rain* | Wind** | Luminosity | Snow |
|---|---|---|---|---|---|---|---|
| 1778066950 | 31.67° C | 83% | 1007.3 hPa | 0 mm | - | 0 W/m² | - |
| 1778064046 | 31.67° C | 81% | 1007.2 hPa | 0 mm | - | 0 W/m² | - |
| 1778063444 | 32.22° C | 80% | 1007.1 hPa | 0 mm | - | 0 W/m² | - |
| 1778061037 | 32.78° C | 79% | 1007.3 hPa | 0 mm | - | 0 W/m² | - |
| 1778059832 | 33.33° C | 79% | 1007.1 hPa | 0 mm | - | 0 W/m² | - |
| 1778058028 | 34.44° C | 80% | 1006.8 hPa | 0 mm | - | 0 W/m² | - |
| 1778056824 | 34.44° C | 81% | 1006.8 hPa | 0 mm | - | 0 W/m² | - |
| 1778056221 | 33.89° C | 80% | 1007.1 hPa | 0 mm | - | 0 W/m² | - |
| 1778054420 | 33.89° C | 80% | 1007.6 hPa | 0 mm | - | 0 W/m² | - |
| 1778051409 | 33.89° C | 81% | 1007.9 hPa | 0 mm | - | 0 W/m² | - |
| 1778049601 | 33.89° C | 83% | 1008.7 hPa | 0 mm | - | 0 W/m² | - |
| 1778047793 | 33.33° C | 85% | 1009 hPa | 0 mm | - | 0 W/m² | - |
| 1778047190 | 33.33° C | 84% | 1009.2 hPa | 0 mm | - | 0 W/m² | - |
| 1778045986 | 32.78° C | 85% | 1009.3 hPa | 0 mm | - | 0 W/m² | - |
| 1778045386 | 33.33° C | 86% | 1009.4 hPa | 0 mm | - | 0 W/m² | - |
| 1778044783 | 33.33° C | 86% | 1009.7 hPa | 0 mm | - | 0 W/m² | - |
| 1778043581 | 32.78° C | 87% | 1010 hPa | 0 mm | - | 0 W/m² | - |
| 1778042980 | 33.33° C | 86% | 1010.1 hPa | 0 mm | - | 0 W/m² | - |
| 1778042375 | 32.78° C | 86% | 1010.3 hPa | 0 mm | - | 0 W/m² | - |
| 1778041773 | 33.33° C | 86% | 1010.3 hPa | 0 mm | - | 0 W/m² | - |
| 1778039967 | 35° C | 84% | 1010.4 hPa | 0 mm | - | 0 W/m² | - |
| 1778039364 | 35° C | 84% | 1010.4 hPa | 0 mm | - | 0 W/m² | - |
| 1778038764 | 35° C | 84% | 1010.7 hPa | 0 mm | - | 0 W/m² | - |
| 1778038162 | 34.44° C | 85% | 1010.9 hPa | 0 mm | - | 0 W/m² | - |
| 1778037559 | 34.44° C | 85% | 1011 hPa | 0 mm | - | 0 W/m² | - |
* Rain latest hour (hover to see other rain measurements)
** Current wind speed in m/s (hover to see current wind gust speed)